#timestamp,LO_Frequency,Hit,StdDev 
1632430815.9,286047002.4,N
1632430835.7,286047000.3,N
1632430855.6,286046998.1,N
1632430875.4,286046999.4,N
1632430895.2,286046996.6,N
1632430915.1,286047001.2,N
1632430916.0,286047001.2,N
1632430935.8,286047000.9,N
1632430955.7,286046999.0,N
1632430975.5,286047000.6,N
1632430995.3,286046998.7,N
1632431015.2,286046998.7,N
1632431035.0,286046999.4,N
1632431035.9,286046999.4,N
1632431055.7,286046999.3,N
1632431075.6,286046996.6,N
1632431095.4,286046996.9,N
1632431115.3,286046999.2,N
1632431135.1,286046998.6,N
1632431136.0,286046998.6,N
1632431155.8,286046999.4,N
1632431175.7,286046998.3,N
1632431195.5,286046998.9,N
1632431215.3,286046999.6,N
1632431235.2,286046997.4,N
1632431255.0,286046996.5,N
1632431255.9,286046996.5,N
1632431275.8,286046997.5,N
1632431295.6,286046997.9,N
1632431315.4,286046997.8,N
1632431335.3,286046996.9,N
1632431355.1,286046997.2,N
1632431375.9,286046997.5,N
1632431395.7,286046997.6,N
1632431415.5,286046996.8,N
1632431435.4,286046997.7,N
1632431455.2,286046996.6,N
1632431475.0,286046999.6,N
1632431475.9,286046999.6,N
1632431495.8,286046997.6,N
1632431515.6,286046996.9,N
1632431535.5,286046996.7,Y
1632431555.3,286046997.0,P
1632431575.1,286046999.0,N
1632431595.9,286046999.4,N
1632431615.7,286046997.0,Y
1632431635.6,286046999.5,P
1632431655.4,286046999.1,N
1632431675.2,286046999.2,N
1632431695.1,286047000.4,N
1632431696.0,286047000.4,N
1632431715.8,286046999.8,N
1632431735.7,286047002.8,Y
1632431755.5,286047002.1,P
1632431775.3,286047001.6,N
1632431795.2,286047002.1,N
1632431815.0,286047000.1,N
1632431815.9,286047000.1,N
1632431835.7,286046998.1,N
1632431855.6,286046999.0,N
1632431875.4,286046998.6,N
1632431895.3,286046999.0,N
1632431915.1,286046998.5,N
1632431935.8,286047000.8,N
1632431955.7,286046998.9,N
1632431975.5,286046998.8,N
1632431995.4,286046999.6,N
1632432015.2,286046996.6,N
1632432035.0,286046999.6,N
1632432035.9,286046999.6,N
1632432055.8,286046999.6,N
1632432075.6,286046998.7,N
1632432095.4,286046999.4,N
1632432115.3,286046997.7,N
1632432135.1,286046997.6,N
1632432155.9,286046999.6,N
1632432175.7,286046996.5,N
1632432195.5,286046997.8,N
1632432215.4,286046999.5,N
1632432235.2,286046998.9,N
1632432255.0,286046998.7,N
1632432256.0,286046998.7,N
1632432275.8,286046999.1,N
1632432295.6,286047000.7,N
1632432315.5,286046998.1,N
1632432335.3,286046998.6,N
1632432355.1,286047000.7,N
1632432375.9,286046998.7,N
1632432395.7,286046998.3,N
1632432415.6,286046998.5,N
1632432435.4,286046998.5,N
1632432455.2,286046998.8,N
1632432475.1,286046999.6,N
1632432476.0,286046999.6,N
1632432495.8,286046999.4,N
1632432515.6,286046998.8,N
1632432535.5,286046998.8,N
1632432555.3,286046999.2,N
1632432575.2,286046999.3,N
1632432595.9,286046998.1,N
1632432615.7,286047001.0,N
1632432635.6,286046998.7,N
1632432655.4,286047001.0,N
1632432675.3,286047000.1,N
1632432695.1,286047001.1,N
1632432696.0,286047001.1,N
1632432715.8,286046999.4,N
1632432735.7,286046999.3,N
1632432755.5,286046998.3,N
1632432775.3,286046999.5,N
1632432795.2,286046999.6,N
1632432815.0,286046999.4,N
1632432815.9,286046999.4,N
1632432835.8,286046999.2,N
1632432855.6,286047000.8,N
1632432875.4,286046998.1,N
1632432895.3,286046998.5,N
1632432915.1,286047000.5,N
1632432935.9,286046998.2,N
1632432955.7,286046998.1,N
1632432975.5,286046998.1,N
1632432995.4,286046998.7,N
1632433015.2,286047001.2,N
1632433035.0,286046999.7,N
1632433035.9,286046999.7,N
1632433055.8,286047002.6,N
1632433075.6,286047002.4,N
1632433095.5,286047000.0,N
1632433115.3,286046999.9,N
1632433135.1,286047000.1,N
1632433155.9,286047000.9,N
1632433175.7,286047000.6,N
1632433195.5,286047002.3,N
1632433215.4,286047002.0,N
1632433235.2,286047001.5,N
1632433255.1,286047004.3,Y
1632433256.0,286047004.3,P
1632433275.8,286047004.2,N
1632433295.6,286047002.2,N
1632433315.5,286047001.4,N
1632433335.3,286047001.5,N
1632433355.2,286047003.2,N
1632433375.9,286047004.2,N
1632433395.7,286047004.3,N
1632433415.6,286047004.2,N
1632433435.4,286047003.5,N
1632433455.2,286047001.8,N
1632433475.1,286047004.2,N
1632433476.0,286047004.2,N
1632433495.8,286047001.7,N
1632433515.7,286047002.0,N
1632433535.5,286047001.3,N
1632433555.3,286047003.5,N
1632433575.2,286047003.0,N
1632433595.0,286047005.8,Y
1632433595.9,286047005.8,P
1632433615.8,286047001.8,N
1632433635.6,286047001.3,N
1632433655.4,286047004.3,N
1632433675.3,286047002.9,N
1632433695.1,286047001.8,N
1632433715.8,286047001.6,N
1632433735.7,286047001.8,N
1632433755.5,286047001.9,N
1632433775.4,286047002.7,N
1632433795.2,286047000.4,N
1632433815.0,286047002.2,N
1632433815.9,286047002.2,N
1632433835.8,286046999.7,N
1632433855.6,286047002.4,N
1632433875.5,286047002.4,N
1632433895.3,286047002.5,N
1632433915.1,286047001.4,N
1632433935.9,286047003.8,N
1632433955.7,286047001.8,N
1632433975.5,286047004.1,Y
1632433995.4,286046999.8,P
1632434015.2,286047001.2,N
1632434035.1,286047000.8,N
1632434036.0,286047000.8,N
1632434055.8,286046999.5,N
1632434075.6,286046997.3,Y
1632434095.5,286046996.7,P
1632434115.3,286046996.6,N
1632434135.2,286046996.8,N
1632434155.9,286046996.1,N
1632434175.7,286046998.0,N
1632434195.6,286046998.0,N
1632434215.4,286046997.4,N
1632434235.2,286046997.4,N
1632434255.1,286046997.4,N
1632434256.0,286046997.4,N
1632434275.8,286046994.9,Y
1632434295.7,286046999.3,P
1632434315.5,286046999.5,N
1632434335.3,286046999.3,N
1632434355.2,286046996.6,Y
1632434375.0,286047001.2,P
1632434375.9,286047001.2,N
1632434395.8,286046999.9,N
